Flag for Canada Weather past 2 weeks in Greater Sudbury, Ontario, Canada

Now
61 °F

Sprinkles. Fog.


Feels Like: 61 °F
Forecast: 44 / 62 °F
Wind: 10 mph from Southwest

Location: Sudbury

Current Time: May 30, 2015 at 3:28:57 AM

Latest Report: May 30, 2015 at 2:00 AM


Visibility: 6 mi

Pressure: 29.85 "Hg

Humidity: 94%

Dew point: 59 °F

Location of Greater SudburyLocation

Historic Weather in Greater Sudbury — Graph

°F

Greater Sudbury temperature yesterday

Maximum temperature yesterday: 75 °F (at 4:00 PM)
Minimum temperature yesterday: 52 °F (at 5:00 AM)
Average temperature yesterday: 63 °F

Past Weeks' High & Low Weather Summary

 TemperatureHumidityPressure
High81 °F (May 24, 2:00 PM)100% (May 16, 12:00 AM)30.30 "Hg (May 16, 12:00 AM)
Low28 °F (May 22, 6:00 AM)23% (May 24, 2:00 PM)29.75 "Hg (May 21, 4:00 PM)
Average56 °F69%30.02 "Hg
* Reported May 15 2:00 AM — May 30 2:00 AM, Greater Sudbury, Weather by CustomWeather, © 2015

Note: Actual official high and low records may vary slightly from our data, if they occured in-between our weather recording intervals... More about our weather records

Advertising

Greater Sudbury weather history for previous 24 hours

 ConditionsComfort  
Time TempWeatherWind HumidityBarometerVisibility
2:00 AM
Sat, May 30
61 °FSprinkles. Fog.10 mph94%29.85 "Hg6 mi
1:00 AM61 °FSprinkles. Fog.8 mph94%29.89 "Hg6 mi
12:00 AM63 °FSprinkles. Overcast.12 mph88%29.93 "Hg10 mi
11:00 PM
Fri, May 29
64 °FPassing clouds.15 mph83%29.92 "Hg15 mi
10:00 PM64 °FOvercast.15 mph83%29.94 "Hg12 mi
9:00 PM63 °FOvercast.10 mph88%29.97 "Hg15 mi
8:00 PM68 °FMostly cloudy.16 mph69%29.99 "Hg15 mi
7:00 PM72 °FOvercast.13 mph61%29.99 "Hg15 mi
6:00 PM75 °FMore clouds than sun.18 mph54%30.00 "Hg20 mi
5:00 PM75 °FOvercast.22 mph50%30.02 "Hg20 mi
4:00 PM75 °FOvercast.20 mph50%30.05 "Hg20 mi
3:00 PM72 °FOvercast.18 mph57%30.08 "Hg20 mi
2:00 PM72 °FOvercast.20 mph57%30.11 "Hg15 mi
1:00 PM70 °FOvercast.15 mph60%30.13 "Hg20 mi
12:00 PM70 °FOvercast.15 mph60%30.14 "Hg20 mi
11:00 AM68 °FOvercast.16 mph64%30.15 "Hg15 mi
10:00 AM64 °FPartly sunny.13 mph73%30.15 "Hg20 mi
9:00 AM61 °FOvercast.10 mph77%30.16 "Hg20 mi
8:00 AM57 °FMore clouds than sun.8 mph88%30.17 "Hg15 mi
7:00 AM55 °FMore clouds than sun.7 mph88%30.18 "Hg15 mi
6:00 AM52 °FPassing clouds.7 mph100%30.18 "Hg20 mi
5:00 AM52 °FPassing clouds.8 mph100%30.19 "Hg15 mi
4:00 AM54 °FPartly cloudy.9 mph94%30.20 "Hg15 mi
3:00 AM54 °FPassing clouds.8 mph94%30.22 "Hg15 mi
Weather by CustomWeather, © 2015

See weather overviewHow to use our weather pages